Beckley, WV

4:14 PM EDT on September 21, 2017 (GMT -0400)
Raleigh County Memorial

Weather History for KBKW - July, 2014

Change the Weather History Date:

Sunday, July 20, 2014

  Actual Average Record
Temperature  
Mean Temperature 69 °F 71 °F  
Max Temperature 77 °F 80 °F 94 °F (1926)
Min Temperature 61 °F 62 °F 43 °F (1909)
Degree Days  
Heating Degree Days 0 0  
Month to date heating degree days 15 0  
Since 1 June heating degree days 27 39  
Since 1 July heating degree days 15 0  
Cooling Degree Days 4 6  
Month to date cooling degree days 101 120  
Year to date cooling degree days 347 272  
Since 1 June cooling degree days 272 231  
Growing Degree Days 19 (Base 50)    
Moisture  
Dew Point 61 °F    
Average Humidity 79    
Maximum Humidity 90    
Minimum Humidity 68    
Precipitation  
Precipitation T in 0.16 in 1.35 in (1938)
Month to date precipitation 1.52 3.20  
Year to date precipitation 19.50 24.36  
Snow  
Snow 0.00 in - - ()
Month to date snowfall 0.0  
Since 1 September snowfall 76.3  
Snow Depth 0.00 in    
Sea Level Pressure  
Sea Level Pressure 30.08 in    
Wind  
Wind Speed 9 mph (SSE)    
Max Wind Speed 14 mph    
Max Gust Speed 22 mph    
Visibility 10 miles    
Events      
T = Trace of Precipitation, MM = Missing Value Source: NWS Daily Summary

Daily Weather History Graph

Daily Weather History Graph

Search for Another Location

Airport or City:

Trip Planner

Search our weather history database for the weather conditions in past years. The results will help you decide how hot, cold, wet, or windy it might be!

Date:

Astronomy

Jul. 20, 2014 Rise Set
Actual Time 6:18 AM EDT 8:43 PM EDT
Civil Twilight 5:48 AM EDT 9:13 PM EDT
Nautical Twilight 5:10 AM EDT 9:50 PM EDT
Astronomical Twilight 4:29 AM EDT 10:30 PM EDT
Moon 1:26 AM EDT (7/20) 3:26 PM EDT (7/20)
Length of Visible Light 15h 24m
Length of Day
14h 24m
Waning Crescent, 34% of the Moon is Illuminated
Jul 20
Waning Crescent
Jul 26
New
Aug 3
First Quarter
Aug 10
Full
Aug 17
Last Quarter

Hourly Weather History & Observations

Time (EDT) Temp. Dew Point Humidity Pressure Visibility Wind Dir Wind Speed Gust Speed Precip Events Conditions
12:51 AM 63.0 °F 57.0 °F 81% 30.07 in 10.0 mi SE 11.5 mph - N/A   Overcast
1:51 AM 62.6 °F 57.2 °F 82% 30.13 in 10.0 mi SE 9.2 mph - N/A   Scattered Clouds
2:51 AM 61.0 °F 57.0 °F 87% 30.05 in 10.0 mi SE 9.2 mph - N/A   Mostly Cloudy
3:51 AM 62.1 °F 57.9 °F 86% 30.05 in 10.0 mi SE 10.4 mph - N/A   Overcast
4:51 AM 62.1 °F 57.9 °F 86% 30.05 in 10.0 mi SE 9.2 mph - N/A   Overcast
5:51 AM 62.1 °F 57.9 °F 86% 30.06 in 10.0 mi SE 9.2 mph - N/A   Overcast
6:51 AM 62.1 °F 57.9 °F 86% 30.08 in 9.0 mi SE 5.8 mph - N/A   Overcast
7:29 AM 63.0 °F 57.9 °F 84% 30.14 in 9.0 mi SSE 6.9 mph - N/A   Overcast
7:51 AM 63.0 °F 57.9 °F 84% 30.09 in 9.0 mi SE 8.1 mph - N/A   Overcast
8:41 AM 64.0 °F 59.0 °F 84% 30.15 in 10.0 mi SE 9.2 mph - 0.00 in   Overcast
8:51 AM 64.0 °F 59.0 °F 84% 30.09 in 10.0 mi SE 11.5 mph - 0.00 in   Mostly Cloudy
9:51 AM 66.9 °F 60.1 °F 79% 30.09 in 10.0 mi South 4.6 mph - N/A   Mostly Cloudy
10:51 AM 71.1 °F 62.1 °F 73% 30.08 in 10.0 mi SSE 9.2 mph - N/A   Partly Cloudy
11:51 AM 73.0 °F 62.1 °F 68% 30.08 in 10.0 mi SSE 8.1 mph - N/A   Mostly Cloudy
12:09 PM 72.0 °F 62.1 °F 71% 30.16 in 10.0 mi SSE 9.2 mph - N/A   Overcast
12:51 PM 72.0 °F 62.1 °F 71% 30.08 in 10.0 mi SE 11.5 mph - N/A   Overcast
1:30 PM 72.0 °F 62.1 °F 71% 30.15 in 10.0 mi SE 6.9 mph - N/A   Overcast
1:51 PM 73.0 °F 62.1 °F 68% 30.07 in 10.0 mi SSE 5.8 mph - N/A   Overcast
2:51 PM 72.0 °F 63.0 °F 73% 30.07 in 10.0 mi South 10.4 mph - 0.00 in   Overcast
3:15 PM 73.0 °F 64.0 °F 73% 30.14 in 10.0 mi SSW 8.1 mph - N/A   Overcast
3:51 PM 73.9 °F 64.0 °F 71% 30.05 in 10.0 mi West 6.9 mph - N/A   Overcast
4:07 PM 75.0 °F 64.9 °F 71% 30.12 in 10.0 mi West 4.6 mph - N/A   Overcast
4:51 PM 75.9 °F 64.9 °F 69% 30.04 in 10.0 mi WSW 6.9 mph - N/A   Mostly Cloudy
5:51 PM 73.9 °F 64.0 °F 71% 30.04 in 10.0 mi South 4.6 mph - N/A   Overcast
6:51 PM 73.0 °F 64.0 °F 73% 30.05 in 10.0 mi SE 8.1 mph - N/A   Overcast
7:51 PM 72.0 °F 64.0 °F 76% 30.06 in 10.0 mi SE 4.6 mph - N/A   Mostly Cloudy
8:51 PM 70.0 °F 64.0 °F 81% 30.06 in 10.0 mi SE 4.6 mph - N/A   Mostly Cloudy
9:51 PM 69.8 °F 64.4 °F 83% 30.15 in 10.0 mi SE 9.2 mph - N/A   Mostly Cloudy
10:51 PM 69.1 °F 63.0 °F 81% 30.08 in 10.0 mi ESE 12.7 mph - N/A   Clear
11:51 PM 68.0 °F 63.0 °F 84% 30.06 in 10.0 mi SE 11.5 mph - N/A   Clear